This is the latest recevied weather packets stored in our database for station/object W1QED. If no packets are shown the sender has not sent any weather packets the latest 10 day(s).
| Time | Temp. | Humidity | Pressure | Rain* | Wind** | Luminosity | Snow |
|---|---|---|---|---|---|---|---|
| 1777317646 | 19.44° C | 25% | 1023.6 hPa | 0 mm | - | - | - |
| 1777317365 | 19.44° C | 23% | 1023.6 hPa | 0 mm | - | - | - |
| 1777317045 | 19.44° C | 24% | 1023.7 hPa | 0 mm | - | - | - |
| 1777316744 | 19.44° C | 22% | 1023.8 hPa | 0 mm | - | - | - |
| 1777316461 | 19.44° C | 22% | 1023.9 hPa | 0 mm | - | - | - |
| 1777316141 | 19.44° C | 25% | 1024 hPa | 0 mm | - | - | - |
| 1777315840 | 19.44° C | 26% | 1024 hPa | 0 mm | - | - | - |
| 1777315539 | 18.89° C | 25% | 1024.2 hPa | 0 mm | - | - | - |
| 1777315238 | 18.89° C | 29% | 1024.2 hPa | 0 mm | - | - | - |
| 1777314937 | 18.89° C | 25% | 1024.1 hPa | 0 mm | - | - | - |
| 1777314647 | 19.44° C | 29% | 1024.1 hPa | 0 mm | - | - | - |
| 1777314338 | 18.89° C | 25% | 1024.3 hPa | 0 mm | - | - | - |
| 1777314035 | 18.89° C | 27% | 1024.3 hPa | 0 mm | - | - | - |
| 1777313734 | 18.89° C | 26% | 1024.3 hPa | 0 mm | - | - | - |
| 1777313433 | 19.44° C | 28% | 1024.4 hPa | 0 mm | - | - | - |
| 1777313131 | 18.89° C | 29% | 1024.5 hPa | 0 mm | - | - | - |
| 1777312831 | 18.33° C | 26% | 1024.6 hPa | 0 mm | - | - | - |
| 1777312530 | 18.33° C | 26% | 1024.6 hPa | 0 mm | - | - | - |
| 1777312228 | 18.33° C | 27% | 1024.6 hPa | 0 mm | - | - | - |
| 1777311928 | 18.33° C | 27% | 1024.5 hPa | 0 mm | - | - | - |
| 1777311626 | 18.33° C | 25% | 1024.5 hPa | 0 mm | - | - | - |
| 1777311326 | 18.33° C | 27% | 1024.6 hPa | 0 mm | - | - | - |
| 1777311052 | 18.33° C | 28% | 1024.7 hPa | 0 mm | - | - | - |
| 1777310726 | 18.33° C | 25% | 1024.6 hPa | 0 mm | - | - | - |
| 1777310425 | 18.33° C | 27% | 1024.6 hPa | 0 mm | - | - | - |
* Rain latest hour (hover to see other rain measurements)
** Current wind speed in m/s (hover to see current wind gust speed)